Nome, AK

7:58 PM AKST on February 07, 2016 (GMT -0900)
Nome

Weather History for PAOM - April, 2012

Change the Weather History Date:

Saturday, April 14, 2012

  Actual Average Record
Temperature  
Mean Temperature 16 °F 19 °F  
Max Temperature 25 °F 26 °F 45 °F (1940)
Min Temperature 6 °F 12 °F -21 °F (1927)
Degree Days  
Heating Degree Days 49 46  
Month to date heating degree days 701 686  
Since 1 July heating degree days 13098 11664  
Cooling Degree Days 0    
Month to date cooling degree days 0  
Year to date cooling degree days 0  
Moisture  
Dew Point 15 °F    
Average Humidity 0    
Maximum Humidity 0    
Minimum Humidity 0    
Precipitation  
Precipitation 0.00 in 0.02 in 0.30 in (1965)
Month to date precipitation 0.33 0.32  
Year to date precipitation 1.90 2.84  
Snow  
Snow 0.00 in 0.30 in 1.70 in (1978)
Month to date snowfall 6.1 3.9  
Since 1 July snowfall 79.4 69.5  
Snow Depth 30.00 in    
Sea Level Pressure  
Sea Level Pressure 29.89 in    
Wind  
Wind Speed 1 mph (West)    
Max Wind Speed 6 mph    
Max Gust Speed 8 mph    
Visibility 10 miles    
Events      
T = Trace of Precipitation, MM = Missing Value Source: NWS Daily Summary

Daily Weather History Graph

Daily Weather History Graph

Search for Another Location

Airport or City:

Trip Planner

Search our weather history database for the weather conditions in past years. The results will help you decide how hot, cold, wet, or windy it might be!

Date:

Astronomy

Apr. 14, 2012 Rise Set
Actual Time 7:29 AM AKDT 10:36 PM AKDT
Civil Twilight 6:33 AM AKDT 11:33 PM AKDT
Nautical Twilight 5:10 AM AKDT 12:58 AM AKDT
Astronomical Twilight 3:34 AM AKDT 2:29 AM AKDT
Moon 6:12 AM AKDT (4/14) 2:36 PM AKDT (4/14)
Length of Visible Light 17h 00m
Length of Day
15h 07m
Waning Crescent, 36% of the Moon is Illuminated
Apr 14
Waning Crescent
Apr 20
New
Apr 29
First Quarter
May 5
Full
May 12
Last Quarter

Hourly Weather History & Observations

Time (AKDT) Temp. Windchill Dew Point Humidity Pressure Visibility Wind Dir Wind Speed Gust Speed Precip Events Conditions
12:53 AM 17.1 °F - 16.0 °F 96% 29.96 in 10.0 mi Calm Calm - N/A   Partly Cloudy
1:53 AM 16.0 °F - 15.1 °F 96% 29.96 in 10.0 mi Calm Calm - N/A   Clear
2:53 AM 14.0 °F - 12.0 °F 92% 29.95 in 10.0 mi Calm Calm - N/A   Clear
3:53 AM 15.1 °F - 12.9 °F 91% 29.94 in 10.0 mi Calm Calm - N/A   Clear
4:53 AM 14.0 °F - 12.0 °F 92% 29.94 in 10.0 mi Calm Calm - N/A   Clear
5:53 AM 10.9 °F - 10.0 °F 96% 29.93 in 10.0 mi Calm Calm - N/A   Scattered Clouds
6:53 AM 9.0 °F - 7.0 °F 92% 29.92 in 10.0 mi Calm Calm - N/A   Partly Cloudy
7:53 AM 8.1 °F -0.5 °F 5.0 °F 87% 29.91 in 10.0 mi NNW 4.6 mph - N/A   Scattered Clouds
8:53 AM 10.9 °F 4.7 °F 8.1 °F 88% 29.91 in 10.0 mi WNW 3.5 mph - N/A   Partly Cloudy
9:53 AM 12.0 °F 5.9 °F 8.1 °F 84% 29.90 in 10.0 mi WNW 3.5 mph - N/A   Partly Cloudy
10:53 AM 15.1 °F - 10.0 °F 80% 29.90 in 10.0 mi Calm Calm - N/A   Partly Cloudy
11:53 AM 17.1 °F - 14.0 °F 88% 29.90 in 10.0 mi Calm Calm - N/A   Partly Cloudy
12:53 PM 19.0 °F - 16.0 °F 88% 29.90 in 10.0 mi Calm Calm - N/A   Partly Cloudy
1:53 PM 19.9 °F - 16.0 °F 85% 29.89 in 10.0 mi Calm Calm - N/A   Partly Cloudy
2:53 PM 21.9 °F 17.2 °F 18.0 °F 85% 29.88 in 10.0 mi WSW 3.5 mph - N/A   Scattered Clouds
3:53 PM 23.0 °F 18.4 °F 19.0 °F 85% 29.87 in 10.0 mi SW 3.5 mph - N/A   Clear
4:53 PM 24.1 °F 18.2 °F 21.0 °F 88% 29.86 in 10.0 mi West 4.6 mph - N/A   Clear
5:53 PM 24.1 °F 18.2 °F 19.9 °F 84% 29.86 in 10.0 mi WSW 4.6 mph - N/A   Clear
6:53 PM 24.1 °F - 19.9 °F 84% 29.84 in 10.0 mi Calm Calm - N/A   Clear
7:53 PM 25.0 °F 19.3 °F 21.0 °F 85% 29.83 in 10.0 mi West 4.6 mph - N/A   Clear
8:53 PM 25.0 °F - 21.0 °F 85% 29.82 in 10.0 mi Calm Calm - N/A   Clear
9:53 PM 21.9 °F - 19.0 °F 89% 29.82 in 10.0 mi Calm Calm - N/A   Clear
10:53 PM 19.9 °F - 17.1 °F 89% 29.83 in 10.0 mi Calm Calm - N/A   Clear
11:53 PM 19.0 °F - 17.1 °F 92% 29.82 in 10.0 mi Calm Calm - N/A   Clear